Regional Weather Roundup
Issued by NWS Upton, NY

Current Version | Previous Version | Graphics & Text | Print | Product List | Glossary Off
Versions: 1 2 3 4 5 6 7 8 9 10 11 12 13 14 15 16 17 18 19 20 21 22 23 24 25 26 27 28 29 30 31 32 33 34 35 36 37 38 39 40 41 42 43 44 45 46 47 48 49 50

000
ASUS41 KOKX 260808
RWROKX

REGIONAL WEATHER ROUNDUP
NATIONAL WEATHER SERVICE NEW YORK NY
400 AM EDT TUE MAY 26 2015

NOTE: "FAIR" INDICATES FEW OR NO CLOUDS BELOW 12,000 FEET WITH NO
SIGNIFICANT WEATHER AND/OR OBSTRUCTIONS TO VISIBILITY.

NYZ071-072-176-178-NJZ106-104-260900-
NEW YORK CITY METRO AREA


CITY           SKY/WX    TMP DP  RH WIND       PRES   REMARKS
CENTRAL PARK   CLEAR     69  52  54 SW7       30.21S
LAGUARDIA APRT PTCLDY    68  52  56 SW12      30.18S
KENNEDY INTL   PTCLDY    60  53  77 S3        30.21S
NEWARK/LIBERTY PTCLDY    67  54  63 S8        30.18S
BRNX BOT. GARD   N/A     68  52  56 SW12      30.18F
TETERBORO      CLEAR     68  53  58 S6        30.17R
$$

NYZ177-179-078>081-260900-
LONG ISLAND NEW YORK

CITY           SKY/WX    TMP DP  RH WIND       PRES   REMARKS
FARMINGDALE    CLEAR     61  56  83 SW7       30.21S
ISLIP          CLEAR     61  56  83 SW10      30.20S
SHIRLEY        CLEAR     62  56  80 SW14G21   30.22F
WESTHAMPTON    CLEAR     60  56  86 SW7       30.24S
MONTAUK POINT    N/A     59  55  87 S10G23    30.22F
$$

NYZ052-065-067-260900-
HUDSON VALLEY

CITY           SKY/WX    TMP DP  RH WIND       PRES   REMARKS
WHITE PLAINS   CLEAR     67  54  63 SW3       30.18R
NEWBURGH       NOT AVBL
MONTGOMERY     CLEAR     65  60  84 MISG      30.15S
POUGHKEEPSIE   CLEAR     63  57  81 CALM      30.14S
ALBANY         PTCLDY    72  58  61 S8        30.08R
$$

NJZ001-105-106-008-010-013-015-019>022-104-260900-
NEW JERSEY

CITY           SKY/WX    TMP DP  RH WIND       PRES   REMARKS
NEWARK/LIBERTY PTCLDY    67  54  63 S8        30.18S
TETERBORO      CLEAR     68  53  58 S6        30.17R
CALDWELL       CLEAR     66  53  63 SW3       30.18S
MORRISTOWN     CLEAR     66  54  63 CALM      30.18S
SOMERVILLE     CLEAR     61  55  81 CALM      30.17S
SUSSEX         PTCLDY    64  57  78 CALM      30.18F
ANDOVER          N/A     63  57  81 CALM      30.18S
TRENTON        CLEAR     64  54  69 S8        30.19S
MILLVILLE      CLEAR     65  59  81 VRB5      30.22S
ATLANTIC CITY  CLEAR     63  58  83 S7        30.22F
WRIGHTSTOWN    CLEAR     58  55  89 S5        30.18F
TOMS RIVER     CLEAR    N/A N/A N/A S6        30.21S
BELMAR         CLEAR     63  52  67 SW8       30.21S
$$

PAZ047>061-062-071-260900-
EASTERN PENNSYLVANIA

CITY           SKY/WX    TMP DP  RH WIND       PRES   REMARKS
PHILADELPHIA   PTCLDY    66  56  70 S8        30.21S
ALLENTOWN      CLEAR     64  57  78 CALM      30.18S
SCRANTON       PTCLDY    69  57  65 SW5       30.16S
$$

CTZ002-004>006-009-010-012-RIZ004-006-007-MAZ004-011-015-260900-
SOUTHERN NEW ENGLAND
 IN CT

CITY           SKY/WX    TMP DP  RH WIND       PRES   REMARKS
BRADLEY INTL   MOCLDY    65  56  72 S10       30.14S
HARTFORD       PTCLDY    65  53  65 S12       30.16S
DANBURY        CLEAR     66  54  65 SW7       30.18S
WTRBRY/OXFORD  CLEAR     61  54  77 S5        30.21R
BRIDGEPORT     CLEAR     62  53  72 S8        30.18S
MERIDEN        MOCLDY    63  52  67 S7        30.18S
NEW HAVEN      CLEAR     60  53  77 S8        30.19S
CHESTER        FAIR      61  55  82 S9G16     30.20S
GROTON         CLEAR     59  53  80 SW9       30.20F
WILLIMANTIC    PTCLDY    65  51  60 S8        30.18S

 IN RI

CITY           SKY/WX    TMP DP  RH WIND       PRES   REMARKS
PROVIDENCE     CLEAR     64  52  64 S12       30.19S
BLOCK ISLAND   CLEAR     57  52  82 SW17      30.22S
WESTERLY       CLEAR     57  53  86 S6        30.22S

 IN MA

CITY           SKY/WX    TMP DP  RH WIND       PRES   REMARKS
BOSTON         MOCLDY    66  54  65 SW18      30.12F
WORCESTER      MOCLDY    63  55  75 SW18      30.14F
WESTFIELD      MOCLDY    65  56  72 S9        30.13R
PROVINCETOWN   CLOUDY    59  52  77 SW17G25   30.18R
NANTUCKET      MOCLDY    59  56  89 SW18      30.23F
$$

ANZ330-335-338-340-345-350-353-355-260900-
COASTAL MARINE OBSERVATIONS


STATION/POSITION TIME  SKY/WX   TEMP    WIND        PRES    VSBY  WAVE
                                AIR SEA DIR/SP/G                  HT/PER
                 (UTC)          (F)     (DEG/KT/KT) (MB)    (MI)  (FT/S)
NY HARB ENTRANCE 0750            60 56  200/ 16/ 17 1022.2          3/ 5
4S FIRE IS       0703               53                N/A           4/ 5
20S FIRE ISLAND  0750            59 55  210/ 14/ 16 1023.0          4/ 6
GREAT SOUTH BAY  0715            61 64  240/ 12/ 14   N/A
23SW MTP         0750            57 52  210/ 16/ 17 1023.3          4/ 5
HUDSON CANYON    NOT AVBL
KINGS POINT      0700            65 58  190/  8/  9 1021.7
CENTRAL LI SOUND 0730            60 54  210/ 10/ 12   N/A
EASTERN LI SOUND 0700            57     260/ 10/ 14   N/A
ROBBINS REEF     0700            68     210/  9/ 13 1021.1
$$


>>>>>>>>>>>>>>>>>>>>>>>>>>>> KEY <<<<<<<<<<<<<<<<<<<<<<<<<<<
>                                                          <
>     SKY/WX - SKY CONDITION/PRESENT WEATHER               <
>     TMP    - TEMPERATURE IN FAHRENHEIT                   <
>     DP     - DEWPOINT IN FAHRENHEIT                      <
>     RH     - RELATIVE HUMIDITY IN PERCENT                <
>     WIND   - DIRECTION AND SPEED IN MPH                  <
>     PRES   - MEAN SEA LEVEL PRESSURE IN INCHES OF HG     <
>     WCI    - WIND CHILL INDEX                            <
>     VSB    - VISIBILITY IN MILES                         <
>     HX     - HEAT INDEX                                  <
>     TC     - TEMPERATURE IN CELSIUS                      <
>     VRB    - VARIABLE WIND DIRECTION                     <
>                                                          <
>>>>>>>>>>>>>>>>>>>>>>>>>>>> KEY <<<<<<<<<<<<<<<<<<<<<<<<<<<




USA.gov is the U.S. government's official web portal to all federal, state and local government web resources and services.